Darstellungsparameter: Aktuell verwendete Einstellungen:
Skalierung der Graphiken ... ?
xyx+y,   Skalierungsfaktor:      Skalierung: Modus: x, Faktor: 1
Darstellungszeitraum ... ?
Vom - - bis: - -   Zeitraum: 19.02.2018 - 18.02.2019
Min/Max/Avg-Anzeige ... ?
Zeige MMA aktuell
Zeige MMA Monat
Zeige MMA alles
Zeige --A aktuell
Zeige --A Monat
Zeige --A alles
Keine MMA-Anzeige
MMA:
Average (ber die Originaldaten)
MMA-Basis: 19.02.2018 - 18.02.2019
Quicknavigation für Darstellung... ?
Tage:      1T, 2T, 3T, 5T -1T -2T -3T -5T +1T +2T +3T +5T
Wochen: 1W, 2W, 3W -1W -2W -3W +1W +2W +3W
Monate: 1M, 3M, 6M -1M -3M -6M +1M +3M +6M
Jahre:    1J, 3J, 5J, 10J -1J -3J -5J -10J +1J +3J +5J +10J
Nutze für die Darstellung ... ?
Originaldaten oder ...
Mittelwerte Minima Maxima auf...
Stundenbasis Tagesbasis Wochenbasis
Monatsbasis Jahresbasis      Datenbasis: Mittelwerte auf Tagesbasis
Darstellen als:
Statistik (Auto) Statistik J:M      Darstellung:
Zur Graphik,    zurück zur Übersicht aller Sensoren.
 
Tabellarische Datenbersicht: ?
 
Sensor: Nr:Datum:Temp:Feuchte:Taupunkt:
Aussen-T/F 1 19-02-2018 00:00:00 1.11667 C 88.7049 % -0.53 C
2 20-02-2018 00:00:00 0.74271 C 87.0313 % -1.16 C
3 21-02-2018 00:00:00 1.21181 C 77.1493 % -2.34 C
4 22-02-2018 00:00:00 -0.03507 C 74.0938 % -4.09 C
5 23-02-2018 00:00:00 -0.725 C 62.2674 % -7.03 C
6 24-02-2018 00:00:00 -1.57049 C 63.0625 % -7.67 C
7 25-02-2018 00:00:00 -2.70729 C 52.6701 % -11.03 C
8 26-02-2018 00:00:00 -4.18854 C 66.9375 % -9.4 C
9 27-02-2018 00:00:00 -6.00417 C 70.8264 % -10.43 C
10 28-02-2018 00:00:00 -6.7066 C 65.9757 % -11.99 C
11 01-03-2018 00:00:00 -2.91424 C 54.5035 % -10.79 C
12 02-03-2018 00:00:00 -2.40208 C 62.9826 % -8.48 C
13 03-03-2018 00:00:00 -0.40937 C 89.6736 % -1.89 C
14 04-03-2018 00:00:00 4.02986 C 90.9965 % 2.7 C
15 05-03-2018 00:00:00 5.96979 C 85.9965 % 3.81 C
16 06-03-2018 00:00:00 4.90694 C 86.9583 % 2.92 C
17 07-03-2018 00:00:00 5.39792 C 90.0556 % 3.9 C
18 08-03-2018 00:00:00 6.19653 C 83.8368 % 3.67 C
19 09-03-2018 00:00:00 5.56528 C 93.9514 % 4.67 C
20 10-03-2018 00:00:00 10.03125 C 92.4792 % 8.87 C
21 11-03-2018 00:00:00 10.51493 C 91.3854 % 9.17 C
22 12-03-2018 00:00:00 9.7 C 90.2813 % 8.19 C
23 13-03-2018 00:00:00 7.76667 C 88.1215 % 5.93 C
24 14-03-2018 00:00:00 6.86458 C 83.6076 % 4.29 C
25 15-03-2018 00:00:00 6.40382 C 83.6319 % 3.84 C
Sensor: Nr:Datum:Temp:Feuchte:Taupunkt:
Aussen-T/F 26 16-03-2018 00:00:00 7.64097 C 94.7813 % 6.86 C
27 17-03-2018 00:00:00 -0.44516 C 83.0573 % -2.96 C
28 18-03-2018 00:00:00 -1.64028 C 75.3299 % -5.42 C
29 19-03-2018 00:00:00 -0.54479 C 65.7778 % -6.15 C
30 20-03-2018 00:00:00 0.29653 C 73.5035 % -3.87 C
31 21-03-2018 00:00:00 1.2059 C 76.4132 % -2.47 C
32 22-03-2018 00:00:00 3.06319 C 89.6667 % 1.54 C
33 23-03-2018 00:00:00 6.14028 C 89.0799 % 4.48 C
34 24-03-2018 00:00:00 5.20069 C 79.8715 % 2.02 C
35 25-03-2018 00:00:00 5.42862 C 76.5217 % 1.64 C
36 26-03-2018 00:00:00 7.61146 C 73.0313 % 3.1 C
37 27-03-2018 00:00:00 5.82222 C 83.6181 % 3.27 C
38 28-03-2018 00:00:00 8.50799 C 92.0278 % 7.29 C
39 29-03-2018 00:00:00 7.11424 C 75.6701 % 3.12 C
40 30-03-2018 00:00:00 6.82813 C 81.6910 % 3.92 C
41 31-03-2018 00:00:00 8.09792 C 78.7083 % 4.63 C
42 01-04-2018 00:00:00 7.66979 C 81.5451 % 4.72 C
43 02-04-2018 00:00:00 8.78611 C 74.8715 % 4.58 C
44 03-04-2018 00:00:00 13.35 C 67.7257 % 7.51 C
45 04-04-2018 00:00:00 11.17187 C 85.0486 % 8.76 C
46 05-04-2018 00:00:00 8.16042 C 84.2049 % 5.66 C
47 06-04-2018 00:00:00 6.97187 C 72.9167 % 2.46 C
48 07-04-2018 00:00:00 12.50035 C 66.5174 % 6.44 C
49 08-04-2018 00:00:00 14.90417 C 67.3368 % 8.91 C
50 09-04-2018 00:00:00 13.73333 C 72.7188 % 8.93 C
Sensor: Nr:Datum:Temp:Feuchte:Taupunkt:
Aussen-T/F 51 10-04-2018 00:00:00 13.3816 C 78.1875 % 9.66 C
52 11-04-2018 00:00:00 11.50035 C 87.5035 % 9.5 C
53 12-04-2018 00:00:00 13.06493 C 80.5000 % 9.79 C
54 13-04-2018 00:00:00 10.32188 C 88.1458 % 8.45 C
55 14-04-2018 00:00:00 13.08403 C 76.3056 % 9.01 C
56 15-04-2018 00:00:00 14.37465 C 81.8542 % 11.32 C
57 16-04-2018 00:00:00 13.42882 C 78.5417 % 9.78 C
58 17-04-2018 00:00:00 13.72569 C 74.7569 % 9.33 C
59 18-04-2018 00:00:00 15.73264 C 69.7882 % 10.23 C
60 19-04-2018 00:00:00 17.21806 C 66.2847 % 10.88 C
61 20-04-2018 00:00:00 17.08681 C 67.8229 % 11.1 C
62 21-04-2018 00:00:00 18.09931 C 71.2639 % 12.82 C
63 22-04-2018 00:00:00 18.53681 C 73.1042 % 13.63 C
64 23-04-2018 00:00:00 18.01181 C 70.6181 % 12.6 C
65 24-04-2018 00:00:00 14.03854 C 72.5938 % 9.2 C
66 25-04-2018 00:00:00 13.47917 C 75.5694 % 9.25 C
67 26-04-2018 00:00:00 11.09167 C 65.0868 % 4.79 C
68 27-04-2018 00:00:00 11.96181 C 67.8333 % 6.21 C
69 28-04-2018 00:00:00 12.62917 C 72.8854 % 7.9 C
70 29-04-2018 00:00:00 14.24792 C 85.8194 % 11.91 C
71 30-04-2018 00:00:00 13.44931 C 77.7604 % 9.65 C
72 01-05-2018 00:00:00 9.59063 C 69.6354 % 4.32 C
73 02-05-2018 00:00:00 9.44549 C 75.6910 % 5.38 C
74 03-05-2018 00:00:00 12.35347 C 68.5729 % 6.74 C
75 04-05-2018 00:00:00 13.14618 C 65.4722 % 6.83 C
Sensor: Nr:Datum:Temp:Feuchte:Taupunkt:
Aussen-T/F 76 05-05-2018 00:00:00 15.50764 C 61.2708 % 8.09 C
77 06-05-2018 00:00:00 17.0059 C 57.6563 % 8.6 C
78 07-05-2018 00:00:00 17.60312 C 61.7674 % 10.19 C
79 08-05-2018 00:00:00 18.08264 C 62.5556 % 10.83 C
80 09-05-2018 00:00:00 17.125 C 71.3160 % 11.89 C
81 10-05-2018 00:00:00 14.09271 C 87.0729 % 11.98 C
82 11-05-2018 00:00:00 14.47951 C 77.2778 % 10.55 C
83 12-05-2018 00:00:00 16.39236 C 75.1597 % 11.99 C
84 13-05-2018 00:00:00 14.62278 C 93.1317 % 13.53 C
85 14-05-2018 00:00:00 16.77361 C 89.0556 % 14.96 C
86 15-05-2018 00:00:00 15.91597 C 75.1875 % 11.53 C
87 16-05-2018 00:00:00 15.4941 C 83.2118 % 12.66 C
88 17-05-2018 00:00:00 13.78333 C 73.6285 % 9.16 C
89 18-05-2018 00:00:00 12.14792 C 74.4757 % 7.75 C
90 19-05-2018 00:00:00 13.63299 C 73.7118 % 9.03 C
91 20-05-2018 00:00:00 14.00278 C 84.2917 % 11.4 C
92 21-05-2018 00:00:00 17.43819 C 78.1806 % 13.6 C
93 22-05-2018 00:00:00 16.97917 C 82.6944 % 14.02 C
94 23-05-2018 00:00:00 17.30243 C 88.5104 % 15.39 C
95 24-05-2018 00:00:00 17.125 C 87.8507 % 15.1 C
96 25-05-2018 00:00:00 19.81944 C 80.2535 % 16.32 C
97 26-05-2018 00:00:00 20.84826 C 76.3958 % 16.54 C
98 27-05-2018 00:00:00 20.3191 C 81.4236 % 17.03 C
99 28-05-2018 00:00:00 21.47083 C 81.6424 % 18.2 C
100 29-05-2018 00:00:00 20.77292 C 85.9514 % 18.34 C
Sensor: Nr:Datum:Temp:Feuchte:Taupunkt:
Aussen-T/F 101 30-05-2018 00:00:00 21.53403 C 77.5799 % 17.45 C
102 31-05-2018 00:00:00 22.62083 C 74.5313 % 17.86 C
103 01-06-2018 00:00:00 19.10729 C 88.6667 % 17.19 C
104 02-06-2018 00:00:00 19.22917 C 81.5243 % 15.99 C
105 03-06-2018 00:00:00 19.42708 C 77.5903 % 15.41 C
106 04-06-2018 00:00:00 20.95938 C 74.2257 % 16.2 C
107 05-06-2018 00:00:00 20.70035 C 77.2569 % 16.58 C
108 06-06-2018 00:00:00 21.09375 C 74.2222 % 16.33 C
109 07-06-2018 00:00:00 21.15174 C 80.5868 % 17.68 C
110 08-06-2018 00:00:00 20.94375 C 84.2361 % 18.18 C
111 09-06-2018 00:00:00 21.9125 C 83.9896 % 19.08 C
112 10-06-2018 00:00:00 21.38239 C 86.1831 % 18.98 C
113 11-06-2018 00:00:00 19.19444 C 93.4549 % 18.11 C
114 12-06-2018 00:00:00 16.41979 C 90.3194 % 14.83 C
115 13-06-2018 00:00:00 14.8941 C 79.6285 % 11.41 C
116 14-06-2018 00:00:00 14.94132 C 80.6806 % 11.65 C
117 15-06-2018 00:00:00 17.84236 C 88.0243 % 15.83 C
118 16-06-2018 00:00:00 19.99306 C 78.6493 % 16.17 C
119 17-06-2018 00:00:00 17.94167 C 75.1979 % 13.49 C
120 18-06-2018 00:00:00 17.81667 C 77.9757 % 13.93 C
121 19-06-2018 00:00:00 18.89201 C 84.5799 % 16.24 C
122 20-06-2018 00:00:00 23.07639 C 72.0069 % 17.75 C
123 21-06-2018 00:00:00 17.92639 C 69.4514 % 12.26 C
124 22-06-2018 00:00:00 13.74097 C 68.4549 % 8.04 C
125 23-06-2018 00:00:00 13.76424 C 76.4514 % 9.7 C
Sensor: Nr:Datum:Temp:Feuchte:Taupunkt:
Aussen-T/F 126 24-06-2018 00:00:00 15.88264 C 72.8299 % 11.02 C
127 25-06-2018 00:00:00 17.09201 C 78.1806 % 13.26 C
128 26-06-2018 00:00:00 17.67396 C 74.6806 % 13.13 C
129 27-06-2018 00:00:00 19.15694 C 67.6979 % 13.05 C
130 28-06-2018 00:00:00 20.71076 C 61.1806 % 12.97 C
131 29-06-2018 00:00:00 24.11424 C 56.0451 % 14.8 C
132 30-06-2018 00:00:00 22.06215 C 56.9201 % 13.13 C
133 01-07-2018 00:00:00 20.86597 C 42.7396 % 7.74 C
134 02-07-2018 00:00:00 20.44792 C 45.9861 % 8.44 C
135 03-07-2018 00:00:00 20.73299 C 50.1319 % 9.98 C
136 04-07-2018 00:00:00 18.84167 C 80.7778 % 15.47 C
137 05-07-2018 00:00:00 19.41111 C 88.5799 % 17.48 C
138 06-07-2018 00:00:00 20.03056 C 75.7014 % 15.61 C
139 07-07-2018 00:00:00 20.66701 C 67.2326 % 14.38 C
140 08-07-2018 00:00:00 19.71181 C 58.3160 % 11.3 C
141 09-07-2018 00:00:00 19.32361 C 67.3299 % 13.12 C
142 10-07-2018 00:00:00 17.13715 C 73.0729 % 12.28 C
143 11-07-2018 00:00:00 16.10729 C 82.2396 % 13.08 C
144 12-07-2018 00:00:00 19.59688 C 80.3924 % 16.13 C
145 13-07-2018 00:00:00 19.71166 C 77.4240 % 15.65 C
146 14-07-2018 00:00:00 21.51493 C 67.9236 % 15.34 C
147 15-07-2018 00:00:00 21.63021 C 64.0521 % 14.54 C
148 16-07-2018 00:00:00 22.30868 C 61.5347 % 14.56 C
149 17-07-2018 00:00:00 21.01771 C 65.8507 % 14.39 C
150 18-07-2018 00:00:00 20.29479 C 65.8750 % 13.71 C
Sensor: Nr:Datum:Temp:Feuchte:Taupunkt:
Aussen-T/F 151 19-07-2018 00:00:00 20.92431 C 60.5069 % 13 C
152 20-07-2018 00:00:00 21.5559 C 61.6319 % 13.88 C
153 21-07-2018 00:00:00 20.6125 C 77.3958 % 16.52 C
154 22-07-2018 00:00:00 21.61458 C 70.0486 % 15.92 C
155 23-07-2018 00:00:00 22.37917 C 67.0868 % 15.97 C
156 24-07-2018 00:00:00 23.70278 C 63.7465 % 16.43 C
157 25-07-2018 00:00:00 25.50069 C 57.3160 % 16.44 C
158 26-07-2018 00:00:00 27.18785 C 54.2326 % 17.14 C
159 27-07-2018 00:00:00 26.11146 C 50.4861 % 15.03 C
160 28-07-2018 00:00:00 21.97743 C 76.3924 % 17.63 C
161 29-07-2018 00:00:00 23.50521 C 66.0451 % 16.8 C
162 30-07-2018 00:00:00 24.29931 C 64.4410 % 17.16 C
163 31-07-2018 00:00:00 25.46875 C 61.9722 % 17.65 C
164 01-08-2018 00:00:00 20.74271 C 87.4931 % 18.59 C
165 02-08-2018 00:00:00 23.73056 C 74.2257 % 18.87 C
166 03-08-2018 00:00:00 26.4684 C 61.0278 % 18.34 C
167 04-08-2018 00:00:00 26.38714 C 57.9821 % 17.45 C
168 05-08-2018 00:00:00 24.70486 C 59.6424 % 16.32 C
169 06-08-2018 00:00:00 24.16944 C 57.6563 % 15.29 C
170 07-08-2018 00:00:00 26.73646 C 55.5104 % 17.09 C
171 08-08-2018 00:00:00 25.29618 C 61.3021 % 17.31 C
172 09-08-2018 00:00:00 20.57778 C 82.7639 % 17.54 C
173 10-08-2018 00:00:00 18.35486 C 65.3924 % 11.76 C
174 11-08-2018 00:00:00 18.37083 C 59.8611 % 10.44 C
175 12-08-2018 00:00:00 18.15451 C 63.0729 % 11.02 C
Sensor: Nr:Datum:Temp:Feuchte:Taupunkt:
Aussen-T/F 176 13-08-2018 00:00:00 17.68854 C 81.8924 % 14.56 C
177 14-08-2018 00:00:00 18.53958 C 84.6563 % 15.91 C
178 15-08-2018 00:00:00 19.375 C 79.2465 % 15.69 C
179 16-08-2018 00:00:00 20.74444 C 71.2743 % 15.36 C
180 17-08-2018 00:00:00 19.75903 C 76.6632 % 15.54 C
181 18-08-2018 00:00:00 18.88785 C 68.7326 % 13.02 C
182 19-08-2018 00:00:00 20.30521 C 67.4132 % 14.07 C
183 20-08-2018 00:00:00 20.84444 C 73.5938 % 15.95 C
184 21-08-2018 00:00:00 21.96979 C 70.6528 % 16.39 C
185 22-08-2018 00:00:00 23.24757 C 65.7500 % 16.48 C
186 23-08-2018 00:00:00 22.88681 C 69.0660 % 16.91 C
187 24-08-2018 00:00:00 19.03368 C 65.5556 % 12.44 C
188 25-08-2018 00:00:00 14.525 C 69.8438 % 9.09 C
189 26-08-2018 00:00:00 13.80556 C 67.7882 % 7.96 C
190 27-08-2018 00:00:00 18.12604 C 70.1493 % 12.6 C
191 28-08-2018 00:00:00 18.12917 C 67.6632 % 12.06 C
192 29-08-2018 00:00:00 17.15556 C 80.1528 % 13.71 C
193 30-08-2018 00:00:00 17.22778 C 75.0799 % 12.78 C
194 31-08-2018 00:00:00 15.05521 C 72.2951 % 10.11 C
195 01-09-2018 00:00:00 14.30833 C 69.0799 % 8.72 C
196 02-09-2018 00:00:00 14.27188 C 76.5347 % 10.21 C
197 03-09-2018 00:00:00 18.05417 C 80.5556 % 14.66 C
198 04-09-2018 00:00:00 20.01736 C 79.3507 % 16.33 C
199 05-09-2018 00:00:00 20.91701 C 73.3229 % 15.97 C
200 06-09-2018 00:00:00 18.07014 C 87.7049 % 16 C
Sensor: Nr:Datum:Temp:Feuchte:Taupunkt:
Aussen-T/F 201 07-09-2018 00:00:00 15.72639 C 86.9479 % 13.56 C
202 08-09-2018 00:00:00 13.53889 C 76.5139 % 9.49 C
203 09-09-2018 00:00:00 16.94236 C 70.6667 % 11.58 C
204 10-09-2018 00:00:00 17.5 C 71.7396 % 12.34 C
205 11-09-2018 00:00:00 18.85868 C 70.4028 % 13.36 C
206 12-09-2018 00:00:00 19.08646 C 71.2882 % 13.77 C
207 13-09-2018 00:00:00 16.3625 C 85.6632 % 13.96 C
208 14-09-2018 00:00:00 16.95174 C 71.3056 % 11.73 C
209 15-09-2018 00:00:00 15.14028 C 70.3368 % 9.78 C
210 16-09-2018 00:00:00 14.7184 C 71.4063 % 9.6 C
211 17-09-2018 00:00:00 16.79306 C 68.7813 % 11.03 C
212 18-09-2018 00:00:00 19.05208 C 70.2292 % 13.51 C
213 19-09-2018 00:00:00 20.67951 C 71.7535 % 15.4 C
214 20-09-2018 00:00:00 19.17153 C 72.3785 % 14.09 C
215 21-09-2018 00:00:00 15.93472 C 78.7778 % 12.26 C
216 22-09-2018 00:00:00 12.7566 C 77.2465 % 8.88 C
217 23-09-2018 00:00:00 12.33056 C 94.4167 % 11.46 C
218 24-09-2018 00:00:00 9.92396 C 85.7674 % 7.66 C
219 25-09-2018 00:00:00 8.38785 C 85.7431 % 6.14 C
220 26-09-2018 00:00:00 8.82917 C 82.7153 % 6.06 C
221 27-09-2018 00:00:00 11.32708 C 83.9236 % 8.71 C
222 28-09-2018 00:00:00 10.18526 C 91.0982 % 8.8 C
223 29-09-2018 00:00:00 8.2941 C 81.8056 % 5.37 C
224 30-09-2018 00:00:00 7.9427 C 82.6726 % 5.18 C
225 01-10-2018 00:00:00 9.71701 C 81.2778 % 6.67 C
Sensor: Nr:Datum:Temp:Feuchte:Taupunkt:
Aussen-T/F 226 02-10-2018 00:00:00 9.17604 C 87.5625 % 7.22 C
227 03-10-2018 00:00:00 12.2809 C 82.0521 % 9.31 C
228 04-10-2018 00:00:00 9.78056 C 87.1875 % 7.75 C
229 05-10-2018 00:00:00 10.63021 C 88.2743 % 8.77 C
230 06-10-2018 00:00:00 12.7691 C 89.0000 % 11 C
231 07-10-2018 00:00:00 13.00243 C 89.0833 % 11.25 C
232 08-10-2018 00:00:00 10.50347 C 88.5521 % 8.69 C
233 09-10-2018 00:00:00 11.75035 C 91.4340 % 10.4 C
234 10-10-2018 00:00:00 13.21285 C 90.3646 % 11.67 C
235 11-10-2018 00:00:00 14.21701 C 88.2674 % 12.31 C
236 12-10-2018 00:00:00 15.87882 C 86.2604 % 13.59 C
237 13-10-2018 00:00:00 15.57986 C 84.2257 % 12.93 C
238 14-10-2018 00:00:00 14.79965 C 83.0174 % 11.95 C
239 15-10-2018 00:00:00 13.825 C 84.5903 % 11.28 C
240 16-10-2018 00:00:00 12.87292 C 86.4653 % 10.67 C
241 17-10-2018 00:00:00 12.82847 C 88.3368 % 10.95 C
242 18-10-2018 00:00:00 14.04618 C 88.4722 % 12.17 C
243 19-10-2018 00:00:00 12.08785 C 87.8889 % 10.14 C
244 20-10-2018 00:00:00 11.03542 C 86.2431 % 8.83 C
245 21-10-2018 00:00:00 7.3066 C 91.4479 % 6.01 C
246 22-10-2018 00:00:00 7.67014 C 90.5417 % 6.22 C
247 23-10-2018 00:00:00 9.04306 C 84.6944 % 6.61 C
248 24-10-2018 00:00:00 14.07604 C 86.3472 % 11.83 C
249 25-10-2018 00:00:00 12.94722 C 83.3368 % 10.19 C
250 26-10-2018 00:00:00 10.21354 C 80.8299 % 7.07 C
Sensor: Nr:Datum:Temp:Feuchte:Taupunkt:
Aussen-T/F 251 27-10-2018 00:00:00 6.27118 C 90.9340 % 4.9 C
252 28-10-2018 00:00:00 5.67778 C 83.1424 % 3.05 C
253 29-10-2018 00:00:00 6.43264 C 84.8160 % 4.07 C
254 30-10-2018 00:00:00 6.2809 C 91.5868 % 5.02 C
255 31-10-2018 00:00:00 7.45382 C 86.8194 % 5.41 C
256 01-11-2018 00:00:00 6.13194 C 95.0799 % 5.4 C
257 02-11-2018 00:00:00 8.86597 C 94.0486 % 7.96 C
258 03-11-2018 00:00:00 3.50521 C 96.4549 % 3 C
259 04-11-2018 00:00:00 6.86007 C 95.2361 % 6.15 C
260 05-11-2018 00:00:00 10.39097 C 92.1042 % 9.17 C
261 06-11-2018 00:00:00 8.41806 C 95.6667 % 7.77 C
262 07-11-2018 00:00:00 9.32118 C 92.4167 % 8.16 C
263 08-11-2018 00:00:00 10.425 C 89.0660 % 8.7 C
264 09-11-2018 00:00:00 9.62604 C 92.9861 % 8.55 C
265 10-11-2018 00:00:00 11.90347 C 90.1250 % 10.34 C
266 11-11-2018 00:00:00 12.04618 C 90.5972 % 10.56 C
267 12-11-2018 00:00:00 13.70069 C 90.0278 % 12.1 C
268 13-11-2018 00:00:00 10.46076 C 92.4965 % 9.3 C
269 14-11-2018 00:00:00 6.18264 C 96.5938 % 5.68 C
270 15-11-2018 00:00:00 6.9816 C 91.5660 % 5.71 C
271 16-11-2018 00:00:00 5.92778 C 89.7882 % 4.38 C
272 17-11-2018 00:00:00 2.75417 C 88.6667 % 1.07 C
273 18-11-2018 00:00:00 1.8566 C 79.8333 % -1.25 C
274 19-11-2018 00:00:00 3.57014 C 81.2153 % 0.66 C
275 20-11-2018 00:00:00 3.50972 C 80.1910 % 0.43 C
Sensor: Nr:Datum:Temp:Feuchte:Taupunkt:
Aussen-T/F 276 21-11-2018 00:00:00 2.50312 C 88.6979 % 0.83 C
277 22-11-2018 00:00:00 2.91458 C 88.0903 % 1.14 C
278 23-11-2018 00:00:00 0.10868 C 95.3785 % -0.54 C
279 24-11-2018 00:00:00 4.74792 C 96.2674 % 4.21 C
280 25-11-2018 00:00:00 5.98785 C 95.8785 % 5.38 C
281 26-11-2018 00:00:00 6.65625 C 87.8958 % 4.8 C
282 27-11-2018 00:00:00 4.12465 C 83.8368 % 1.64 C
283 28-11-2018 00:00:00 3.7 C 91.6667 % 2.47 C
284 29-11-2018 00:00:00 5.67875 C 92.7735 % 4.6 C
285 30-11-2018 00:00:00 7.44514 C 94.6875 % 6.65 C
286 01-12-2018 00:00:00 7.48993 C 91.5833 % 6.21 C
287 02-12-2018 00:00:00 11.28056 C 93.0868 % 10.21 C
288 03-12-2018 00:00:00 11.76701 C 95.7708 % 11.11 C
289 04-12-2018 00:00:00 6.48715 C 90.9653 % 5.12 C
290 05-12-2018 00:00:00 3.60729 C 96.1806 % 3.06 C
291 06-12-2018 00:00:00 9.76042 C 93.8924 % 8.83 C
292 07-12-2018 00:00:00 11.22882 C 86.6667 % 9.09 C
293 08-12-2018 00:00:00 7.97361 C 88.5035 % 6.19 C
294 09-12-2018 00:00:00 8.02544 C 87.9756 % 6.16 C
295 10-12-2018 00:00:00 4.96771 C 91.2639 % 3.67 C
296 11-12-2018 00:00:00 3.84375 C 93.7118 % 2.93 C
297 12-12-2018 00:00:00 2.70801 C 95.4948 % 2.06 C
298 13-12-2018 00:00:00 1.36181 C 87.4618 % -0.49 C
299 14-12-2018 00:00:00 1.15521 C 77.4757 % -2.33 C
300 15-12-2018 00:00:00 0.62683 C 78.6202 % -2.65 C
Sensor: Nr:Datum:Temp:Feuchte:Taupunkt:
Aussen-T/F 301 16-12-2018 00:00:00 0.77743 C 90.5382 % -0.59 C
302 17-12-2018 00:00:00 4.19722 C 94.8194 % 3.44 C
303 18-12-2018 00:00:00 5.08229 C 90.2917 % 3.63 C
304 19-12-2018 00:00:00 6.54495 C 88.8537 % 4.84 C
305 20-12-2018 00:00:00 7.58741 C 89.6818 % 6 C
306 21-12-2018 00:00:00 10.78507 C 86.4514 % 8.62 C
307 22-12-2018 00:00:00 9.94266 C 85.9091 % 7.7 C
308 23-12-2018 00:00:00 8.60868 C 93.6563 % 7.65 C
309 24-12-2018 00:00:00 4.88924 C 90.8750 % 3.53 C
310 25-12-2018 00:00:00 1.85208 C 93.1667 % 0.87 C
311 26-12-2018 00:00:00 -0.91736 C 95.5035 % -1.54 C
312 27-12-2018 00:00:00 0.08125 C 95.8090 % -0.51 C
313 28-12-2018 00:00:00 0.225 C 94.9375 % -0.49 C
314 29-12-2018 00:00:00 2.70972 C 93.3576 % 1.75 C
315 30-12-2018 00:00:00 7.50313 C 87.4271 % 5.55 C
316 31-12-2018 00:00:00 7.59271 C 96.4201 % 7.06 C
317 01-01-2019 00:00:00 7.09271 C 92.0833 % 5.9 C
318 02-01-2019 00:00:00 3.70104 C 82.7847 % 1.05 C
319 03-01-2019 00:00:00 2.03715 C 93.0000 % 1.03 C
320 04-01-2019 00:00:00 3.13785 C 91.9826 % 1.96 C
321 05-01-2019 00:00:00 5.92632 C 93.3825 % 4.94 C
322 06-01-2019 00:00:00 5.76944 C 91.7674 % 4.54 C
323 07-01-2019 00:00:00 5.50417 C 89.8819 % 3.98 C
324 08-01-2019 00:00:00 6.62222 C 85.9688 % 4.45 C
325 09-01-2019 00:00:00 3.90486 C 83.8368 % 1.43 C
Sensor: Nr:Datum:Temp:Feuchte:Taupunkt:
Aussen-T/F 326 10-01-2019 00:00:00 2.05694 C 83.7708 % -0.39 C
327 11-01-2019 00:00:00 2.82847 C 94.7882 % 2.08 C
328 12-01-2019 00:00:00 5.96702 C 92.9734 % 4.92 C
329 13-01-2019 00:00:00 7.73715 C 94.1493 % 6.86 C
330 14-01-2019 00:00:00 5.07083 C 89.5625 % 3.5 C
331 15-01-2019 00:00:00 4.78854 C 89.1007 % 3.15 C
332 16-01-2019 00:00:00 5.27187 C 85.4861 % 3.04 C
333 17-01-2019 00:00:00 5.0066 C 87.3924 % 3.09 C
334 18-01-2019 00:00:00 0.77569 C 91.8611 % -0.39 C
335 19-01-2019 00:00:00 -2.72396 C 93.3299 % -3.65 C
336 20-01-2019 00:00:00 -4.97187 C 92.8854 % -5.94 C
337 21-01-2019 00:00:00 -6.20972 C 93.8472 % -7.04 C
338 22-01-2019 00:00:00 -4.96667 C 92.0938 % -6.05 C
339 23-01-2019 00:00:00 -1.57743 C 89.4028 % -3.09 C
340 24-01-2019 00:00:00 -1.91736 C 83.8854 % -4.27 C
341 25-01-2019 00:00:00 0.28403 C 88.1354 % -1.44 C
342 26-01-2019 00:00:00 4.48229 C 92.3229 % 3.35 C
343 27-01-2019 00:00:00 5.94583 C 90.0868 % 4.45 C
344 28-01-2019 00:00:00 3.17118 C 90.8854 % 1.83 C
345 29-01-2019 00:00:00 1.73021 C 89.6875 % 0.22 C
346 30-01-2019 00:00:00 0.45972 C 93.3264 % -0.49 C
347 31-01-2019 00:00:00 -0.09826 C 94.7188 % -0.84 C
348 01-02-2019 00:00:00 1.74826 C 95.6389 % 1.13 C
349 02-02-2019 00:00:00 2.46701 C 96.8611 % 2.02 C
350 03-02-2019 00:00:00 2.7 C 88.6910 % 1.02 C
Sensor: Nr:Datum:Temp:Feuchte:Taupunkt:
Aussen-T/F 351 04-02-2019 00:00:00 1.83229 C 87.0625 % -0.09 C
352 05-02-2019 00:00:00 4.34375 C 81.1771 % 1.41 C
353 06-02-2019 00:00:00 1.17639 C 89.9688 % -0.28 C
354 07-02-2019 00:00:00 5.09549 C 88.0833 % 3.29 C
355 08-02-2019 00:00:00 7.42604 C 83.5417 % 4.83 C
356 09-02-2019 00:00:00 8.6309 C 79.8056 % 5.35 C
357 10-02-2019 00:00:00 7.96076 C 88.4965 % 6.18 C
358 11-02-2019 00:00:00 4.86736 C 86.4931 % 2.81 C
359 12-02-2019 00:00:00 3.71597 C 86.6563 % 1.7 C
360 13-02-2019 00:00:00 1.77951 C 91.5833 % 0.56 C
361 14-02-2019 00:00:00 0.77431 C 92.7674 % -0.26 C
362 15-02-2019 00:00:00 2.33854 C 89.2917 % 0.76 C
363 16-02-2019 00:00:00 3.375 C 88.6319 % 1.68 C
364 17-02-2019 00:00:00 3.45451 C 89.9236 % 1.96 C
365 18-02-2019 00:00:00 3.69653 C 86.8368 % 1.71 C

Maximal/Minimal-Werte vom 19.02.2018 - 18.02.2019

Sensor Min Max Avg
Temp
(Aussen-T/F)
-10.4 °C
27-02-2018  07:25:00
38.4 °C
07-08-2018  18:10:00
11.52 °C
Feuchte
(Aussen-T/F)
18 %
03-07-2018  17:25:00
98 %
10-03-2018  08:15:00
80.5 %
Taupunkt
(Aussen-T/F)
-11.99 C
28-02-2018  00:00:00
19.08 C
09-06-2018  00:00:00
8.05 C

Die Daten stammen von einer Davis Vantage Pro 2 Wetter-Station und werden unter Linux mit der Software wview2wettercgi und aufbereitet. Alle Angaben erfolgen ohne Gewähr für ihre Vollständigkeit oder Richtigkeit.
Kontakt: Rainer Krienke krienke@uni-koblenz.de . Meine Webseiten an der Uni Koblenz oder privat.
Version: $Revision: 0.78 $